User: anonymous   Login
Location: Landeleau
(48.2273°N, 3.7285°W)
Time: 21:02:45
(UTC+00:00)
Language:

SL-08 RB Rocket - Orbit

View from above orbital plane
View from above orbital plane
View from above satellite
View from above satellite

Ground track
Ground track

The orbit data is extracted from the following two-line orbital elements,

1 26387U 00033D   20184.89590586 +.00000031 +00000-0 +13294-4 0  9994
2 26387 097.8163 225.6816 0027262 037.5348 135.2767 14.68563327328718
Epoch (UTC): 02 July 2020 21:30:06
Eccentricity: 0.0027262
inclination: 97.8163°
perigee height: 646 km
apogee height: 685 km
right ascension of ascending node: 225.6816°
argument of perigee: 37.5348°
revolutions per day: 14.68563327
mean anomaly at epoch: 135.2767°
orbit number at epoch: 32871

The dashed part of the orbit path shows where the satellite is in the earth's shadow,  

DLR